OPS 4682 DEB, 38427

Orbit data source: Space-Track

OPS 4682 DEB, 38427 is space debris in LEO originally from a launch on Sat, 03 Apr 1965 UTC launched from the Air Force Western Test Range (AFWTR). Debris objects in space refer to the collection of defunct objects orbiting the Earth. Examples of debris include non-operational satellites, rocket bodies, and fragments generated from explosions, collisions, or faulty payload assembly.

Loading next visibility...
Identifier
38427, 1965-027EG
Orbit
LEO
Country
Flag of USUS
Related business
Manufacturer
Unknown
Mission
Spacecraft
Bus & Motor
Unknown
Mass
Unknown
Launch date (UTC)
1965-04-03 (61 years ago)
Launch vehicle
Unknown
Launch site
Air Force Western Test Range (AFWTR)
Object type
Payload
Rocket body
Debris
Shape & HBR
Unknown shape, 0.1 m
Radar Cross Section
Medium (>0.1 m² and <1 m²)

Expand to show TLE details & history
Last TLE update: 2 days ago

TLE from 2 days ago
0 OPS 4682 DEB
1 38427U 65027EG  26172.97291053  .00000181  00000-0  65068-3 0  9996
2 38427  90.2306   0.7176 0032589 167.3692 192.8249 12.91415629662366
Epoch: 2026-06-21T23:20Z
TLE epoch observation values (Epoch: 2026-06-21T23:20:59.469Z)
Latitude
-0.00005°
Longitude
100.30431°
Altitude
1,323.172 km
Speed
7.184 km/s
True Right ascension
00h 02m 52s
True Declination
0° 00' 00"
Sunlit
Object was in daylight at epoch
Visualization orbit readout
Latitude
Unknown
Longitude
Unknown
Altitude
Unknown
Speed
Unknown
Apparent Right ascension
Unknown
Apparent Declination
Unknown
Sunlit
N/A
Visualization observer readout
Local Sidereal Time
19:25:56
Azimuth
Unknown
Elevation
Unknown
Doppler factor
Unknown
Orbital elements
Apogee altitude
1,318.046 km
Perigee altitude
1,268.047 km
Semi-major axis
7,671.184 km
Eccentricity
0.00326
Inclination
90.2306°
RAAN
0.7176°
Arg. of periapsis
167.3692°
True anomaly
192.74233°
Mean anomaly
192.8249°
Eccentric anomaly
192.78358°
Mean motion
3.23035 °/min
Orbital period
111.44 mins
BSTAR
0.00065068
Loading maneuver chart data...
Computing Atmospheric mass density...
Loading historical data...
Loading historical data...
Loading historical data...
Loading historical data...
Loading historical data...
Loading historical data...
Loading historical data...

Documentation

Showing up to 5 results
|